カタログに戻る

CZ-6A DEB

LostPO
NORAD 61798·DEBRIS·🇨🇳 China

打ち上げ Aug 6, 2024 から Taiyuan Satellite Launch Center

Loading…

次のパス (今後24時間)

TLE

古いSource: Space-Track

元期: Jun 6, 2025, 17:41 UTC

1 61798U 24140ABN 25157.73725942  .00064021  00000-0  45381-2 0  9997
2 61798  89.3539 327.7953 0063723  44.7499 315.8852 15.02854501 41732

AllMySatでCZ-6A DEBをリアルタイム追跡

Download on the App Store